Back to catalog

STARLINK-11397

AliveCommunicationsVLEO
NORAD 62590·PAYLOAD·🇺🇸 United States

Launched Jan 13, 2025 from Cape Canaveral Space Force Station

Loading…

Next Passes (next 24 hours)

TLE

FreshSource: CelesTrak SupGP

Epoch: Sep 14, 2026, 21:21 UTC

1 62590C 25008D   26257.89006944  .00060475  00000+0  46984-3 0  2571
2 62590  43.0009  65.2615 0001663 274.0328 162.9167 15.70801835    18

Track STARLINK-11397 in real time with AllMySat

Download on the App Store